Time,TemperatureF,DewpointF,PressureIn,WindDirection,WindDirectionDegrees,WindSpeedMPH,WindSpeedGustMPH,Humidity,HourlyPrecipIn,Conditions,Clouds,dailyrainin,SoftwareType,DateUTC
2013-01-12 00:00:00,70.1,69.8,29.93,South,187,0.0,0.0,99,0.00,,---,0.00,VWS V14.01,2013-01-12 06:00:00,
2013-01-12 00:05:00,70.3,70.0,29.93,South,191,3.0,6.0,99,0.00,,---,0.00,VWS V14.01,2013-01-12 06:05:00,
2013-01-12 00:10:00,70.3,70.0,29.93,South,183,6.0,6.0,99,0.00,,---,0.00,VWS V14.01,2013-01-12 06:10:00,
2013-01-12 00:15:00,70.3,70.0,29.93,South,171,3.0,4.0,99,0.00,,---,0.00,VWS V14.01,2013-01-12 06:15:00,
2013-01-12 00:20:00,70.3,70.0,29.93,SSE,163,0.0,4.0,99,0.00,,---,0.00,VWS V14.01,2013-01-12 06:20:00,
2013-01-12 00:25:00,70.3,70.0,29.93,South,180,0.0,6.0,99,0.00,,---,0.00,VWS V14.01,2013-01-12 06:25:00,
2013-01-12 00:30:00,70.3,70.0,29.93,SSE,165,0.0,6.0,99,0.00,,---,0.00,VWS V14.01,2013-01-12 06:30:00,
2013-01-12 00:35:00,70.4,70.1,29.93,South,178,4.0,6.0,99,0.00,,---,0.00,VWS V14.01,2013-01-12 06:35:00,
2013-01-12 00:40:00,70.4,70.1,29.93,South,188,6.0,10.0,99,0.00,,---,0.00,VWS V14.01,2013-01-12 06:40:00,
2013-01-12 00:45:00,70.4,70.1,29.93,South,174,2.0,5.0,99,0.00,,---,0.00,VWS V14.01,2013-01-12 06:45:00,
2013-01-12 00:50:00,70.4,70.1,29.93,SSW,204,5.0,7.0,99,0.00,,---,0.00,VWS V14.01,2013-01-12 06:50:00,
2013-01-12 00:55:00,70.4,70.1,29.93,South,187,5.0,11.0,99,0.00,,---,0.00,VWS V14.01,2013-01-12 06:55:00,
2013-01-12 01:00:00,70.4,70.1,29.93,SSW,203,8.0,12.0,99,0.00,,---,0.00,VWS V14.01,2013-01-12 07:00:00,
2013-01-12 01:01:00,70.4,70.1,29.93,SSW,195,1.0,8.0,99,0.00,,---,0.00,VWS V14.01,2013-01-12 07:01:00,
2013-01-12 01:06:00,70.4,70.1,29.93,SSW,196,0.0,10.0,99,0.00,,---,0.00,VWS V14.01,2013-01-12 07:06:00,
2013-01-12 01:11:00,70.4,70.1,29.93,South,174,3.0,10.0,99,0.00,,---,0.00,VWS V14.01,2013-01-12 07:11:00,
2013-01-12 01:15:00,70.4,70.1,29.93,South,174,0.0,10.0,99,0.00,,---,0.00,VWS V14.01,2013-01-12 07:15:00,
2013-01-12 01:16:00,70.4,70.1,29.93,South,174,0.0,0.0,99,0.00,,---,0.00,VWS V14.01,2013-01-12 07:16:00,
2013-01-12 01:21:00,70.4,70.1,29.93,South,180,6.0,6.0,99,0.00,,---,0.00,VWS V14.01,2013-01-12 07:21:00,
2013-01-12 01:26:00,70.4,70.1,29.93,South,190,0.0,6.0,99,0.00,,---,0.00,VWS V14.01,2013-01-12 07:26:00,
2013-01-12 01:30:00,70.4,70.1,29.94,South,177,0.0,6.0,99,0.00,,---,0.00,VWS V14.01,2013-01-12 07:30:00,
2013-01-12 01:31:00,70.4,70.1,29.94,SSW,199,7.0,7.0,99,0.00,,---,0.00,VWS V14.01,2013-01-12 07:31:00,
2013-01-12 01:36:00,70.4,70.1,29.94,South,175,0.0,7.0,99,0.00,,---,0.00,VWS V14.01,2013-01-12 07:36:00,
2013-01-12 01:41:00,70.4,70.1,29.94,South,180,0.0,7.0,99,0.00,,---,0.00,VWS V14.01,2013-01-12 07:41:00,
2013-01-12 01:45:00,70.4,70.1,29.93,South,169,1.0,7.0,99,0.00,,---,0.00,VWS V14.01,2013-01-12 07:45:00,
2013-01-12 01:47:00,70.4,70.1,29.93,SSE,165,3.0,5.0,99,0.00,,---,0.00,VWS V14.01,2013-01-12 07:47:00,
2013-01-12 01:52:00,70.4,70.1,29.93,South,181,0.0,5.0,99,0.00,,---,0.00,VWS V14.01,2013-01-12 07:52:00,
2013-01-12 01:57:00,70.4,70.1,29.93,SSE,167,5.0,6.0,99,0.00,,---,0.00,VWS V14.01,2013-01-12 07:57:00,
2013-01-12 02:00:00,70.4,70.1,29.93,South,183,0.0,6.0,99,0.00,,---,0.00,VWS V14.01,2013-01-12 08:00:00,
2013-01-12 02:02:00,70.4,70.1,29.93,South,178,0.0,5.0,99,0.00,,---,0.00,VWS V14.01,2013-01-12 08:02:00,
2013-01-12 02:07:00,70.4,70.1,29.93,South,188,0.0,7.0,99,0.00,,---,0.00,VWS V14.01,2013-01-12 08:07:00,
2013-01-12 02:12:00,70.4,70.1,29.93,South,186,0.0,7.0,99,0.00,,---,0.00,VWS V14.01,2013-01-12 08:12:00,
2013-01-12 02:15:00,70.4,70.1,29.93,South,175,0.0,7.0,99,0.00,,---,0.00,VWS V14.01,2013-01-12 08:15:00,
2013-01-12 02:17:00,70.4,70.1,29.93,South,184,0.0,6.0,99,0.00,,---,0.00,VWS V14.01,2013-01-12 08:17:00,
2013-01-12 02:22:00,70.4,70.1,29.93,South,188,5.0,6.0,99,0.00,,---,0.00,VWS V14.01,2013-01-12 08:22:00,
2013-01-12 02:27:00,70.4,70.1,29.93,South,186,6.0,7.0,99,0.00,,---,0.00,VWS V14.01,2013-01-12 08:27:00,
2013-01-12 02:30:00,70.4,70.1,29.94,South,175,0.0,7.0,99,0.00,,---,0.00,VWS V14.01,2013-01-12 08:30:00,
2013-01-12 02:32:00,70.4,70.1,29.94,SSE,166,0.0,0.0,99,0.00,,---,0.00,VWS V14.01,2013-01-12 08:32:00,
2013-01-12 02:38:00,70.3,70.0,29.94,SSW,193,0.0,4.0,99,0.00,,---,0.00,VWS V14.01,2013-01-12 08:38:00,
2013-01-12 02:43:00,70.3,70.0,29.94,South,174,0.0,5.0,99,0.00,,---,0.00,VWS V14.01,2013-01-12 08:43:00,
2013-01-12 02:45:00,70.3,70.0,29.93,South,174,0.0,5.0,99,0.00,,---,0.00,VWS V14.01,2013-01-12 08:45:00,
2013-01-12 02:48:00,70.3,70.0,29.93,South,169,0.0,4.0,99,0.00,,---,0.00,VWS V14.01,2013-01-12 08:48:00,
2013-01-12 02:53:00,70.3,70.0,29.93,South,179,0.0,7.0,99,0.00,,---,0.00,VWS V14.01,2013-01-12 08:53:00,
2013-01-12 02:58:00,70.3,70.0,29.93,South,169,4.0,7.0,99,0.01,,---,0.01,VWS V14.01,2013-01-12 08:58:00,
2013-01-12 03:00:00,70.3,70.0,29.93,South,169,0.0,7.0,99,0.01,,---,0.01,VWS V14.01,2013-01-12 09:00:00,
2013-01-12 03:03:00,70.3,70.0,29.93,South,189,0.0,3.0,99,0.01,,---,0.01,VWS V14.01,2013-01-12 09:03:00,
2013-01-12 03:08:00,70.1,69.8,29.93,South,184,0.0,4.0,99,0.01,,---,0.01,VWS V14.01,2013-01-12 09:08:00,
2013-01-12 03:13:00,70.1,69.8,29.93,South,179,0.0,5.0,99,0.01,,---,0.01,VWS V14.01,2013-01-12 09:13:00,
2013-01-12 03:15:00,70.1,69.8,29.93,South,171,0.0,5.0,99,0.01,,---,0.01,VWS V14.01,2013-01-12 09:15:00,
2013-01-12 03:18:00,70.1,69.8,29.93,South,189,0.0,7.0,99,0.01,,---,0.01,VWS V14.01,2013-01-12 09:18:00,
2013-01-12 03:23:00,70.1,69.8,29.93,SSE,166,0.0,7.0,99,0.01,,---,0.01,VWS V14.01,2013-01-12 09:23:00,
2013-01-12 03:28:00,70.1,69.8,29.93,SSE,166,0.0,7.0,99,0.01,,---,0.01,VWS V14.01,2013-01-12 09:28:00,
2013-01-12 03:30:00,70.1,69.8,29.93,SSE,166,0.0,7.0,99,0.01,,---,0.01,VWS V14.01,2013-01-12 09:30:00,
2013-01-12 03:33:00,70.1,69.8,29.93,South,179,0.0,0.0,99,0.01,,---,0.01,VWS V14.01,2013-01-12 09:33:00,
2013-01-12 03:38:00,70.1,69.8,29.93,SE,137,0.0,6.0,99,0.01,,---,0.01,VWS V14.01,2013-01-12 09:38:00,
2013-01-12 03:44:00,69.9,69.6,29.93,SSE,157,0.0,6.0,99,0.01,,---,0.01,VWS V14.01,2013-01-12 09:44:00,
2013-01-12 03:45:00,69.9,69.6,29.93,SSE,157,0.0,6.0,99,0.01,,---,0.01,VWS V14.01,2013-01-12 09:45:00,
2013-01-12 03:49:00,69.9,69.6,29.93,SSE,157,0.0,0.0,99,0.01,,---,0.01,VWS V14.01,2013-01-12 09:49:00,
2013-01-12 03:54:00,69.9,69.6,29.93,South,182,0.0,1.0,99,0.01,,---,0.01,VWS V14.01,2013-01-12 09:54:00,
2013-01-12 03:59:00,69.8,69.5,29.92,SSE,148,1.0,1.0,99,0.01,,---,0.01,VWS V14.01,2013-01-12 09:59:00,
2013-01-12 04:00:00,69.8,69.5,29.92,SSE,148,0.0,1.0,99,0.01,,---,0.01,VWS V14.01,2013-01-12 10:00:00,
2013-01-12 04:04:00,69.8,69.5,29.92,SE,143,1.0,5.0,99,0.00,,---,0.01,VWS V14.01,2013-01-12 10:04:00,
2013-01-12 04:09:00,69.8,69.5,29.92,SSE,157,0.0,5.0,99,0.00,,---,0.01,VWS V14.01,2013-01-12 10:09:00,
2013-01-12 04:14:00,69.6,69.3,29.91,SE,132,2.0,6.0,99,0.00,,---,0.01,VWS V14.01,2013-01-12 10:14:00,
2013-01-12 04:15:00,69.6,69.3,29.91,SE,136,2.0,6.0,99,0.00,,---,0.01,VWS V14.01,2013-01-12 10:15:00,
2013-01-12 04:19:00,69.6,69.3,29.91,SSE,163,0.0,9.0,99,0.00,,---,0.01,VWS V14.01,2013-01-12 10:19:00,
2013-01-12 04:24:00,69.4,69.1,29.91,SSE,161,0.0,9.0,99,0.00,,---,0.01,VWS V14.01,2013-01-12 10:24:00,
2013-01-12 04:30:00,69.4,69.1,29.91,SSE,167,0.0,0.0,99,0.00,,---,0.01,VWS V14.01,2013-01-12 10:30:00,
2013-01-12 04:35:00,69.4,69.1,29.91,SSE,168,0.0,8.0,99,0.00,,---,0.01,VWS V14.01,2013-01-12 10:35:00,
2013-01-12 04:40:00,69.4,69.1,29.91,SSE,151,0.0,8.0,99,0.00,,---,0.01,VWS V14.01,2013-01-12 10:40:00,
2013-01-12 04:45:00,69.4,69.1,29.91,SSE,155,0.0,0.0,99,0.00,,---,0.01,VWS V14.01,2013-01-12 10:45:00,
2013-01-12 04:50:00,69.4,69.1,29.91,SSE,167,0.0,5.0,99,0.00,,---,0.01,VWS V14.01,2013-01-12 10:50:00,
2013-01-12 04:55:00,69.3,69.0,29.91,South,178,0.0,5.0,99,0.00,,---,0.01,VWS V14.01,2013-01-12 10:55:00,
2013-01-12 05:00:00,69.3,69.0,29.91,SE,137,2.0,4.0,99,0.00,,---,0.01,VWS V14.01,2013-01-12 11:00:00,
2013-01-12 05:05:00,69.3,69.0,29.91,South,188,6.0,7.0,99,0.00,,---,0.01,VWS V14.01,2013-01-12 11:05:00,
2013-01-12 05:10:00,69.1,68.8,29.91,South,178,6.0,7.0,99,0.00,,---,0.01,VWS V14.01,2013-01-12 11:10:00,
2013-01-12 05:15:00,69.1,68.8,29.91,SSE,167,3.0,3.0,99,0.00,,---,0.01,VWS V14.01,2013-01-12 11:15:00,
2013-01-12 05:21:00,69.1,68.8,29.91,SSE,153,0.0,5.0,99,0.00,,---,0.01,VWS V14.01,2013-01-12 11:21:00,
2013-01-12 05:26:00,68.9,68.6,29.91,SSE,151,0.0,5.0,99,0.00,,---,0.01,VWS V14.01,2013-01-12 11:26:00,
2013-01-12 05:30:00,68.9,68.6,29.92,SE,145,0.0,5.0,99,0.00,,---,0.01,VWS V14.01,2013-01-12 11:30:00,
2013-01-12 05:31:00,68.9,68.6,29.92,SE,145,0.0,0.0,99,0.00,,---,0.01,VWS V14.01,2013-01-12 11:31:00,
2013-01-12 05:36:00,68.9,68.6,29.92,SSE,150,0.0,10.0,99,0.00,,---,0.01,VWS V14.01,2013-01-12 11:36:00,
2013-01-12 05:41:00,68.8,68.5,29.92,SSE,165,0.0,10.0,99,0.00,,---,0.01,VWS V14.01,2013-01-12 11:41:00,
2013-01-12 05:45:00,68.6,68.3,29.92,South,174,0.0,10.0,99,0.00,,---,0.01,VWS V14.01,2013-01-12 11:45:00,
2013-01-12 05:46:00,68.6,68.3,29.92,South,174,0.0,0.0,99,0.00,,---,0.01,VWS V14.01,2013-01-12 11:46:00,
2013-01-12 05:51:00,68.4,68.1,29.92,South,177,0.0,0.0,99,0.00,,---,0.01,VWS V14.01,2013-01-12 11:51:00,
2013-01-12 05:56:00,68.3,68.0,29.92,South,175,2.0,4.0,99,0.00,,---,0.01,VWS V14.01,2013-01-12 11:56:00,
2013-01-12 06:00:00,68.3,68.0,29.92,South,176,0.0,4.0,99,0.00,,---,0.01,VWS V14.01,2013-01-12 12:00:00,
2013-01-12 06:01:00,68.3,68.0,29.92,South,171,2.0,5.0,99,0.00,,---,0.01,VWS V14.01,2013-01-12 12:01:00,
2013-01-12 06:06:00,68.3,68.0,29.92,South,175,0.0,5.0,99,0.00,,---,0.01,VWS V14.01,2013-01-12 12:06:00,
2013-01-12 06:11:00,68.3,68.0,29.92,SSE,161,0.0,5.0,99,0.00,,---,0.01,VWS V14.01,2013-01-12 12:11:00,
2013-01-12 06:15:00,68.3,68.0,29.92,SSE,161,0.0,5.0,99,0.00,,---,0.01,VWS V14.01,2013-01-12 12:15:00,
2013-01-12 06:16:00,68.3,68.0,29.92,South,178,0.0,4.0,99,0.00,,---,0.01,VWS V14.01,2013-01-12 12:16:00,
2013-01-12 06:21:00,68.3,68.0,29.92,SSE,163,0.0,4.0,99,0.00,,---,0.01,VWS V14.01,2013-01-12 12:21:00,
2013-01-12 06:26:00,68.3,68.0,29.92,South,174,6.0,6.0,99,0.00,,---,0.01,VWS V14.01,2013-01-12 12:26:00,
2013-01-12 06:30:00,68.3,68.0,29.93,SE,130,2.0,9.0,99,0.00,,---,0.01,VWS V14.01,2013-01-12 12:30:00,
2013-01-12 06:31:00,68.4,68.1,29.93,SSE,159,0.0,2.0,99,0.00,,---,0.01,VWS V14.01,2013-01-12 12:31:00,
2013-01-12 06:37:00,68.4,68.1,29.93,South,186,6.0,11.0,99,0.00,,---,0.01,VWS V14.01,2013-01-12 12:37:00,
2013-01-12 06:42:00,68.6,68.3,29.93,South,178,4.0,11.0,99,0.00,,---,0.01,VWS V14.01,2013-01-12 12:42:00,
2013-01-12 06:45:00,68.6,68.3,29.94,SSW,192,3.0,11.0,99,0.00,,---,0.01,VWS V14.01,2013-01-12 12:45:00,
2013-01-12 06:47:00,68.6,68.3,29.94,SSE,161,0.0,3.0,99,0.00,,---,0.01,VWS V14.01,2013-01-12 12:47:00,
2013-01-12 06:52:00,68.6,68.3,29.94,SSW,194,5.0,5.0,99,0.00,,---,0.01,VWS V14.01,2013-01-12 12:52:00,
2013-01-12 06:57:00,68.6,68.3,29.94,South,174,0.0,9.0,99,0.00,,---,0.01,VWS V14.01,2013-01-12 12:57:00,
2013-01-12 07:00:00,68.6,68.3,29.94,South,171,3.0,9.0,99,0.00,,---,0.01,VWS V14.01,2013-01-12 13:00:00,
2013-01-12 07:02:00,68.6,68.3,29.94,South,180,0.0,5.0,99,0.00,,---,0.01,VWS V14.01,2013-01-12 13:02:00,
2013-01-12 07:07:00,68.6,68.3,29.94,South,190,0.0,5.0,99,0.00,,---,0.01,VWS V14.01,2013-01-12 13:07:00,
2013-01-12 07:12:00,68.6,68.3,29.94,SSW,196,3.0,9.0,99,0.00,,---,0.01,VWS V14.01,2013-01-12 13:12:00,
2013-01-12 07:15:00,68.6,68.3,29.95,South,186,2.0,9.0,99,0.00,,---,0.01,VWS V14.01,2013-01-12 13:15:00,
2013-01-12 07:17:00,68.6,68.3,29.95,SSW,193,5.0,6.0,99,0.00,,---,0.01,VWS V14.01,2013-01-12 13:17:00,
2013-01-12 07:22:00,68.4,68.1,29.95,South,186,0.0,6.0,99,0.00,,---,0.01,VWS V14.01,2013-01-12 13:22:00,
2013-01-12 07:27:00,68.4,68.1,29.95,South,185,0.0,6.0,99,0.00,,---,0.01,VWS V14.01,2013-01-12 13:27:00,
2013-01-12 07:30:00,68.4,68.1,29.95,South,180,0.0,6.0,99,0.00,,---,0.01,VWS V14.01,2013-01-12 13:30:00,
2013-01-12 07:32:00,68.4,68.1,29.95,South,171,0.0,5.0,99,0.00,,---,0.01,VWS V14.01,2013-01-12 13:32:00,
2013-01-12 07:37:00,68.4,68.1,29.95,South,169,4.0,6.0,99,0.00,,---,0.01,VWS V14.01,2013-01-12 13:37:00,
2013-01-12 07:42:00,68.4,68.1,29.95,South,173,0.0,9.0,99,0.00,,---,0.01,VWS V14.01,2013-01-12 13:42:00,
2013-01-12 07:45:00,68.6,68.3,29.95,South,180,0.0,9.0,99,0.00,,---,0.01,VWS V14.01,2013-01-12 13:45:00,
2013-01-12 07:47:00,68.6,68.3,29.95,South,180,0.0,0.0,99,0.00,,---,0.01,VWS V14.01,2013-01-12 13:47:00,
2013-01-12 07:52:00,68.6,68.3,29.95,SSW,200,5.0,5.0,99,0.00,,---,0.01,VWS V14.01,2013-01-12 13:52:00,
2013-01-12 07:57:00,68.6,68.3,29.95,South,187,0.0,5.0,99,0.00,,---,0.01,VWS V14.01,2013-01-12 13:57:00,
2013-01-12 08:00:00,68.8,68.5,29.95,SSW,192,5.0,5.0,99,0.00,,---,0.01,VWS V14.01,2013-01-12 14:00:00,
2013-01-12 08:02:00,68.8,68.5,29.95,South,188,0.0,6.0,99,0.00,,---,0.01,VWS V14.01,2013-01-12 14:02:00,
2013-01-12 08:07:00,68.9,68.6,29.95,SSE,166,0.0,6.0,99,0.00,,---,0.01,VWS V14.01,2013-01-12 14:07:00,
2013-01-12 08:12:00,68.9,68.6,29.95,SSE,167,3.0,6.0,99,0.00,,---,0.01,VWS V14.01,2013-01-12 14:12:00,
2013-01-12 08:15:00,68.9,68.6,29.95,SE,130,0.0,6.0,99,0.00,,---,0.01,VWS V14.01,2013-01-12 14:15:00,
2013-01-12 08:17:00,68.9,68.6,29.95,South,184,2.0,7.0,99,0.00,,---,0.01,VWS V14.01,2013-01-12 14:17:00,
2013-01-12 08:22:00,68.9,68.6,29.95,South,186,0.0,7.0,99,0.00,,---,0.01,VWS V14.01,2013-01-12 14:22:00,
2013-01-12 08:27:00,69.1,68.8,29.95,South,177,0.0,7.0,99,0.00,,---,0.01,VWS V14.01,2013-01-12 14:27:00,
2013-01-12 08:30:00,69.1,68.8,29.95,South,175,4.0,7.0,99,0.00,,---,0.01,VWS V14.01,2013-01-12 14:30:00,
2013-01-12 08:33:00,69.1,68.8,29.95,SSE,163,0.0,7.0,99,0.00,,---,0.01,VWS V14.01,2013-01-12 14:33:00,
2013-01-12 08:37:00,69.1,68.8,29.95,SSW,192,0.0,8.0,99,0.00,,---,0.01,VWS V14.01,2013-01-12 14:37:00,
2013-01-12 08:42:00,69.1,68.8,29.95,South,182,6.0,8.0,99,0.00,,---,0.01,VWS V14.01,2013-01-12 14:42:00,
2013-01-12 08:45:00,69.1,68.8,29.95,South,181,0.0,10.0,99,0.00,,---,0.01,VWS V14.01,2013-01-12 14:45:00,
2013-01-12 08:48:00,69.3,69.0,29.95,South,184,2.0,6.0,99,0.00,,---,0.01,VWS V14.01,2013-01-12 14:48:00,
2013-01-12 08:53:00,69.3,69.0,29.95,South,170,0.0,9.0,99,0.00,,---,0.01,VWS V14.01,2013-01-12 14:53:00,
2013-01-12 08:58:00,69.4,69.1,29.95,South,174,0.0,9.0,99,0.00,,---,0.01,VWS V14.01,2013-01-12 14:58:00,
2013-01-12 09:00:00,69.4,69.1,29.95,South,175,0.0,9.0,99,0.00,,---,0.01,VWS V14.01,2013-01-12 15:00:00,
2013-01-12 09:03:00,69.6,69.3,29.95,SE,143,1.0,6.0,99,0.00,,---,0.01,VWS V14.01,2013-01-12 15:03:00,
2013-01-12 09:08:00,69.6,69.3,29.95,SE,136,0.0,9.0,99,0.00,,---,0.01,VWS V14.01,2013-01-12 15:08:00,
2013-01-12 09:13:00,69.8,69.5,29.95,SSE,165,0.0,9.0,99,0.00,,---,0.01,VWS V14.01,2013-01-12 15:13:00,
2013-01-12 09:15:00,69.9,69.6,29.95,South,171,4.0,9.0,99,0.00,,---,0.01,VWS V14.01,2013-01-12 15:15:00,
2013-01-12 09:18:00,70.1,69.8,29.95,South,187,6.0,7.0,99,0.00,,---,0.01,VWS V14.01,2013-01-12 15:18:00,
2013-01-12 09:23:00,70.1,69.8,29.95,South,171,7.0,9.0,99,0.00,,---,0.01,VWS V14.01,2013-01-12 15:23:00,
2013-01-12 09:28:00,69.9,69.6,29.96,South,183,1.0,10.0,99,0.00,,---,0.01,VWS V14.01,2013-01-12 15:28:00,
2013-01-12 09:30:00,70.1,69.8,29.96,SSE,152,6.0,10.0,99,0.00,,---,0.01,VWS V14.01,2013-01-12 15:30:00,
2013-01-12 09:33:00,70.1,69.8,29.96,South,175,0.0,11.0,99,0.00,,---,0.01,VWS V14.01,2013-01-12 15:33:00,
2013-01-12 09:39:00,70.4,70.1,29.96,South,175,0.0,11.0,99,0.00,,---,0.01,VWS V14.01,2013-01-12 15:39:00,
2013-01-12 09:44:00,70.4,70.1,29.96,SSW,202,6.0,12.0,99,0.00,,---,0.01,VWS V14.01,2013-01-12 15:44:00,
2013-01-12 09:45:00,70.4,70.1,29.96,South,171,6.0,12.0,99,0.00,,---,0.01,VWS V14.01,2013-01-12 15:45:00,
2013-01-12 09:49:00,70.6,70.3,29.96,SSE,159,4.0,9.0,99,0.00,,---,0.01,VWS V14.01,2013-01-12 15:49:00,
2013-01-12 09:54:00,70.4,70.1,29.96,SSE,167,0.0,13.0,99,0.00,,---,0.01,VWS V14.01,2013-01-12 15:54:00,
2013-01-12 09:59:00,70.3,70.0,29.97,South,189,3.0,13.0,99,0.00,,---,0.01,VWS V14.01,2013-01-12 15:59:00,
2013-01-12 10:00:00,70.4,70.1,29.97,SSW,200,4.0,13.0,99,0.00,,---,0.01,VWS V14.01,2013-01-12 16:00:00,
2013-01-12 10:04:00,70.4,70.1,29.97,South,189,7.0,9.0,99,0.00,,---,0.01,VWS V14.01,2013-01-12 16:04:00,
2013-01-12 10:09:00,70.6,70.3,29.97,SSE,167,4.0,14.0,99,0.00,,---,0.01,VWS V14.01,2013-01-12 16:09:00,
2013-01-12 10:14:00,70.8,70.5,29.96,SSE,159,0.0,14.0,99,0.00,,---,0.01,VWS V14.01,2013-01-12 16:14:00,
2013-01-12 10:15:00,70.8,70.5,29.96,SSE,159,0.0,14.0,99,0.00,,---,0.01,VWS V14.01,2013-01-12 16:15:00,
2013-01-12 10:19:00,70.9,70.3,29.96,SE,143,0.0,6.0,98,0.00,,---,0.01,VWS V14.01,2013-01-12 16:19:00,
2013-01-12 10:24:00,70.8,70.2,29.96,SSE,163,3.0,10.0,98,0.00,,---,0.01,VWS V14.01,2013-01-12 16:24:00,
2013-01-12 10:30:00,70.9,70.3,29.96,SE,133,7.0,7.0,98,0.00,,---,0.01,VWS V14.01,2013-01-12 16:30:00,
2013-01-12 10:35:00,70.9,70.3,29.96,SE,134,0.0,7.0,98,0.00,,---,0.01,VWS V14.01,2013-01-12 16:35:00,
2013-01-12 10:40:00,70.9,70.3,29.96,SSE,148,1.0,7.0,98,0.00,,---,0.01,VWS V14.01,2013-01-12 16:40:00,
2013-01-12 10:45:00,70.9,70.3,29.95,SSE,149,6.0,7.0,98,0.00,,---,0.01,VWS V14.01,2013-01-12 16:45:00,
2013-01-12 10:50:00,70.9,70.3,29.95,SSE,160,0.0,9.0,98,0.00,,---,0.01,VWS V14.01,2013-01-12 16:50:00,
2013-01-12 10:55:00,70.8,70.2,29.95,SSE,168,3.0,11.0,98,0.00,,---,0.01,VWS V14.01,2013-01-12 16:55:00,
2013-01-12 11:00:00,71.1,70.5,29.93,SE,139,3.0,5.0,98,0.00,,---,0.01,VWS V14.01,2013-01-12 17:00:00,
2013-01-12 11:05:00,70.9,70.3,29.93,South,170,4.0,10.0,98,0.00,,---,0.01,VWS V14.01,2013-01-12 17:05:00,
2013-01-12 11:10:00,70.9,70.3,29.93,SE,125,6.0,10.0,98,0.00,,---,0.01,VWS V14.01,2013-01-12 17:10:00,
2013-01-12 11:15:00,70.9,70.3,29.93,South,186,2.0,7.0,98,0.00,,---,0.01,VWS V14.01,2013-01-12 17:15:00,
2013-01-12 11:21:00,71.5,70.9,29.93,SSE,148,0.0,7.0,98,0.00,,---,0.01,VWS V14.01,2013-01-12 17:21:00,
2013-01-12 11:26:00,71.5,70.9,29.93,SE,133,0.0,9.0,98,0.00,,---,0.01,VWS V14.01,2013-01-12 17:26:00,
2013-01-12 11:30:00,71.5,70.6,29.92,SSE,158,0.0,9.0,97,0.00,,---,0.01,VWS V14.01,2013-01-12 17:30:00,
2013-01-12 11:31:00,71.6,71.0,29.92,SSE,158,0.0,0.0,98,0.00,,---,0.01,VWS V14.01,2013-01-12 17:31:00,
2013-01-12 11:36:00,71.5,70.6,29.92,SSE,167,0.0,11.0,97,0.00,,---,0.01,VWS V14.01,2013-01-12 17:36:00,
2013-01-12 11:41:00,71.5,70.6,29.92,SSE,164,3.0,11.0,97,0.00,,---,0.01,VWS V14.01,2013-01-12 17:41:00,
2013-01-12 11:45:00,71.5,70.6,29.92,South,173,7.0,11.0,97,0.00,,---,0.01,VWS V14.01,2013-01-12 17:45:00,
2013-01-12 11:46:00,71.5,70.6,29.92,SE,136,0.0,7.0,97,0.00,,---,0.01,VWS V14.01,2013-01-12 17:46:00,
2013-01-12 11:51:00,72.0,71.1,29.92,SSE,163,5.0,7.0,97,0.00,,---,0.01,VWS V14.01,2013-01-12 17:51:00,
2013-01-12 11:56:00,72.0,71.1,29.92,South,185,8.0,9.0,97,0.00,,---,0.01,VWS V14.01,2013-01-12 17:56:00,
2013-01-12 12:00:00,72.1,71.2,29.90,South,180,0.0,9.0,97,0.00,,---,0.01,VWS V14.01,2013-01-12 18:00:00,
2013-01-12 12:01:00,72.1,71.2,29.90,South,169,2.0,8.0,97,0.00,,---,0.01,VWS V14.01,2013-01-12 18:01:00,
2013-01-12 12:07:00,72.1,71.2,29.90,SE,128,7.0,13.0,97,0.00,,---,0.01,VWS V14.01,2013-01-12 18:07:00,
2013-01-12 12:12:00,72.5,71.6,29.90,SSE,165,6.0,13.0,97,0.00,,---,0.01,VWS V14.01,2013-01-12 18:12:00,
2013-01-12 12:15:00,72.5,71.6,29.89,South,169,8.0,13.0,97,0.00,,---,0.01,VWS V14.01,2013-01-12 18:15:00,
2013-01-12 12:17:00,72.5,71.6,29.89,South,188,6.0,10.0,97,0.00,,---,0.01,VWS V14.01,2013-01-12 18:17:00,
2013-01-12 12:22:00,72.3,71.1,29.89,SSW,195,1.0,13.0,96,0.00,,---,0.01,VWS V14.01,2013-01-12 18:22:00,
2013-01-12 12:27:00,72.7,71.5,29.89,South,171,5.0,13.0,96,0.00,,---,0.01,VWS V14.01,2013-01-12 18:27:00,
2013-01-12 12:30:00,72.7,71.5,29.88,South,175,10.0,13.0,96,0.00,,---,0.01,VWS V14.01,2013-01-12 18:30:00,
2013-01-12 12:32:00,72.7,71.5,29.88,SSW,196,7.0,11.0,96,0.00,,---,0.01,VWS V14.01,2013-01-12 18:32:00,
2013-01-12 12:37:00,72.5,71.3,29.88,SSE,155,5.0,13.0,96,0.00,,---,0.01,VWS V14.01,2013-01-12 18:37:00,
2013-01-12 12:42:00,72.3,71.1,29.88,South,169,4.0,13.0,96,0.00,,---,0.01,VWS V14.01,2013-01-12 18:42:00,
2013-01-12 12:45:00,72.3,71.1,29.87,South,174,0.0,13.0,96,0.00,,---,0.01,VWS V14.01,2013-01-12 18:45:00,
2013-01-12 12:47:00,72.3,71.1,29.87,SSW,195,1.0,11.0,96,0.00,,---,0.01,VWS V14.01,2013-01-12 18:47:00,
2013-01-12 12:53:00,72.3,70.8,29.87,SSW,205,4.0,17.0,95,0.00,,---,0.01,VWS V14.01,2013-01-12 18:53:00,
2013-01-12 12:58:00,72.5,71.0,29.87,SSE,155,5.0,17.0,95,0.00,,---,0.01,VWS V14.01,2013-01-12 18:58:00,
2013-01-12 13:00:00,72.1,70.6,29.87,South,180,10.0,18.0,95,0.00,,---,0.01,VWS V14.01,2013-01-12 19:00:00,
2013-01-12 13:03:00,71.8,70.0,29.87,South,173,15.0,18.0,94,0.00,,---,0.01,VWS V14.01,2013-01-12 19:03:00,
2013-01-12 13:08:00,71.1,69.3,29.87,South,177,9.0,20.0,94,0.00,,---,0.01,VWS V14.01,2013-01-12 19:08:00,
2013-01-12 13:13:00,70.9,69.1,29.87,South,188,9.0,21.0,94,0.00,,---,0.01,VWS V14.01,2013-01-12 19:13:00,
2013-01-12 13:15:00,70.9,69.4,29.86,SSW,193,10.0,21.0,95,0.00,,---,0.01,VWS V14.01,2013-01-12 19:15:00,
2013-01-12 13:18:00,70.9,69.4,29.86,SSW,193,5.0,17.0,95,0.00,,---,0.01,VWS V14.01,2013-01-12 19:18:00,
2013-01-12 13:23:00,71.3,69.8,29.86,South,182,6.0,17.0,95,0.00,,---,0.01,VWS V14.01,2013-01-12 19:23:00,
2013-01-12 13:28:00,71.5,70.0,29.86,SSW,195,6.0,17.0,95,0.00,,---,0.01,VWS V14.01,2013-01-12 19:28:00,
2013-01-12 13:30:00,71.5,70.0,29.86,SSW,199,10.0,17.0,95,0.00,,---,0.01,VWS V14.01,2013-01-12 19:30:00,
2013-01-12 13:33:00,71.1,69.6,29.86,SSW,194,11.0,16.0,95,0.00,,---,0.01,VWS V14.01,2013-01-12 19:33:00,
2013-01-12 13:39:00,70.9,69.4,29.86,SSW,205,8.0,18.0,95,0.00,,---,0.01,VWS V14.01,2013-01-12 19:39:00,
2013-01-12 13:44:00,70.6,69.1,29.86,South,172,12.0,19.0,95,0.00,,---,0.01,VWS V14.01,2013-01-12 19:44:00,
2013-01-12 13:45:00,70.6,69.1,29.86,SSW,193,12.0,19.0,95,0.00,,---,0.01,VWS V14.01,2013-01-12 19:45:00,
2013-01-12 13:49:00,70.6,69.1,29.86,South,184,6.0,16.0,95,0.00,,---,0.01,VWS V14.01,2013-01-12 19:49:00,
2013-01-12 13:54:00,70.8,69.3,29.86,South,191,4.0,16.0,95,0.00,,---,0.01,VWS V14.01,2013-01-12 19:54:00,
2013-01-12 13:59:00,70.6,69.1,29.86,South,175,7.0,16.0,95,0.00,,---,0.01,VWS V14.01,2013-01-12 19:59:00,
2013-01-12 14:00:00,70.6,69.1,29.86,South,183,14.0,16.0,95,0.00,,---,0.01,VWS V14.01,2013-01-12 20:00:00,
2013-01-12 14:04:00,70.9,69.4,29.86,SW,220,16.0,18.0,95,0.00,,---,0.01,VWS V14.01,2013-01-12 20:04:00,
2013-01-12 14:09:00,70.6,68.8,29.86,SSW,197,13.0,18.0,94,0.00,,---,0.01,VWS V14.01,2013-01-12 20:09:00,
2013-01-12 14:14:00,70.1,68.3,29.85,SSE,160,5.0,19.0,94,0.00,,---,0.01,VWS V14.01,2013-01-12 20:14:00,
2013-01-12 14:15:00,70.1,68.3,29.85,SSE,160,5.0,19.0,94,0.00,,---,0.01,VWS V14.01,2013-01-12 20:15:00,
2013-01-12 14:19:00,70.1,68.3,29.85,SSW,195,14.0,22.0,94,0.00,,---,0.01,VWS V14.01,2013-01-12 20:19:00,
2013-01-12 14:24:00,70.8,67.7,29.85,SE,146,17.0,22.0,90,0.00,,---,0.01,VWS V14.01,2013-01-12 20:24:00,
2013-01-12 14:29:00,71.5,66.8,29.84,South,190,12.0,22.0,85,0.00,,---,0.01,VWS V14.01,2013-01-12 20:29:00,
2013-01-12 14:30:00,71.5,66.8,29.84,South,190,12.0,22.0,85,0.00,,---,0.01,VWS V14.01,2013-01-12 20:30:00,
2013-01-12 14:34:00,71.8,65.3,29.84,SSW,196,22.0,22.0,80,0.00,,---,0.01,VWS V14.01,2013-01-12 20:34:00,
2013-01-12 14:40:00,72.7,65.1,29.84,South,176,18.0,22.0,77,0.00,,---,0.01,VWS V14.01,2013-01-12 20:40:00,
2013-01-12 14:45:00,73.0,64.2,29.85,SSE,163,11.0,14.0,74,0.00,,---,0.01,VWS V14.01,2013-01-12 20:45:00,
2013-01-12 14:50:00,73.2,64.0,29.85,SSW,192,13.0,20.0,73,0.00,,---,0.01,VWS V14.01,2013-01-12 20:50:00,
2013-01-12 14:55:00,74.9,65.3,29.85,South,187,7.0,20.0,72,0.00,,---,0.01,VWS V14.01,2013-01-12 20:55:00,
2013-01-12 15:00:00,75.8,65.3,29.85,SSW,194,10.0,13.0,70,0.00,,---,0.01,VWS V14.01,2013-01-12 21:00:00,
2013-01-12 15:05:00,76.1,65.2,29.85,SSW,205,8.0,16.0,69,0.00,,---,0.01,VWS V14.01,2013-01-12 21:05:00,
2013-01-12 15:10:00,76.5,65.6,29.85,SSW,209,11.0,20.0,69,0.00,,---,0.01,VWS V14.01,2013-01-12 21:10:00,
2013-01-12 15:15:00,76.7,65.3,29.85,SSW,199,8.0,13.0,68,0.00,,---,0.01,VWS V14.01,2013-01-12 21:15:00,
2013-01-12 15:20:00,76.8,65.0,29.85,South,176,18.0,18.0,67,0.00,,---,0.01,VWS V14.01,2013-01-12 21:20:00,
2013-01-12 15:25:00,76.7,64.1,29.85,South,190,10.0,18.0,65,0.00,,---,0.01,VWS V14.01,2013-01-12 21:25:00,
2013-01-12 15:30:00,76.7,64.1,29.84,South,183,11.0,14.0,65,0.00,,---,0.01,VWS V14.01,2013-01-12 21:30:00,
2013-01-12 15:35:00,76.7,63.6,29.84,South,182,13.0,17.0,64,0.00,,---,0.01,VWS V14.01,2013-01-12 21:35:00,
2013-01-12 15:41:00,76.7,64.1,29.84,SE,146,7.0,21.0,65,0.00,,---,0.01,VWS V14.01,2013-01-12 21:41:00,
2013-01-12 15:45:00,76.7,63.6,29.85,SSE,157,11.0,21.0,64,0.00,,---,0.01,VWS V14.01,2013-01-12 21:45:00,
2013-01-12 15:46:00,76.7,64.1,29.85,South,186,6.0,13.0,65,0.00,,---,0.01,VWS V14.01,2013-01-12 21:46:00,
2013-01-12 15:51:00,76.5,63.9,29.85,SE,133,11.0,17.0,65,0.00,,---,0.01,VWS V14.01,2013-01-12 21:51:00,
2013-01-12 15:56:00,76.5,64.3,29.85,South,191,7.0,18.0,66,0.00,,---,0.01,VWS V14.01,2013-01-12 21:56:00,
2013-01-12 16:00:00,76.5,64.3,29.84,South,186,4.0,18.0,66,0.00,,---,0.01,VWS V14.01,2013-01-12 22:00:00,
2013-01-12 16:01:00,76.5,64.3,29.84,South,182,3.0,7.0,66,0.00,,---,0.01,VWS V14.01,2013-01-12 22:01:00,
2013-01-12 16:06:00,76.8,64.6,29.84,SW,219,9.0,10.0,66,0.00,,---,0.01,VWS V14.01,2013-01-12 22:06:00,
2013-01-12 16:11:00,77.0,64.8,29.84,SSE,165,7.0,16.0,66,0.00,,---,0.01,VWS V14.01,2013-01-12 22:11:00,
2013-01-12 16:15:00,77.0,65.2,29.84,SSW,192,2.0,16.0,67,0.00,,---,0.01,VWS V14.01,2013-01-12 22:15:00,
2013-01-12 16:16:00,77.0,65.2,29.84,SSW,198,6.0,10.0,67,0.00,,---,0.01,VWS V14.01,2013-01-12 22:16:00,
2013-01-12 16:21:00,76.8,65.0,29.84,SSW,213,15.0,15.0,67,0.00,,---,0.01,VWS V14.01,2013-01-12 22:21:00,
2013-01-12 16:26:00,76.5,65.2,29.84,SSW,203,7.0,15.0,68,0.00,,---,0.01,VWS V14.01,2013-01-12 22:26:00,
2013-01-12 16:30:00,76.3,65.0,29.85,SSW,202,12.0,15.0,68,0.00,,---,0.01,VWS V14.01,2013-01-12 22:30:00,
2013-01-12 16:32:00,76.3,65.0,29.85,South,178,10.0,14.0,68,0.00,,---,0.01,VWS V14.01,2013-01-12 22:32:00,
2013-01-12 16:37:00,76.0,64.7,29.85,SSE,168,5.0,14.0,68,0.00,,---,0.01,VWS V14.01,2013-01-12 22:37:00,
2013-01-12 16:42:00,75.6,64.7,29.85,SSW,196,5.0,14.0,69,0.00,,---,0.01,VWS V14.01,2013-01-12 22:42:00,
2013-01-12 16:45:00,75.6,65.1,29.84,SSW,197,5.0,14.0,70,0.00,,---,0.01,VWS V14.01,2013-01-12 22:45:00,
2013-01-12 16:47:00,75.4,64.9,29.84,South,184,9.0,9.0,70,0.00,,---,0.01,VWS V14.01,2013-01-12 22:47:00,
2013-01-12 16:52:00,75.1,65.1,29.84,SSE,161,7.0,10.0,71,0.00,,---,0.01,VWS V14.01,2013-01-12 22:52:00,
2013-01-12 16:57:00,74.9,65.3,29.84,South,185,9.0,15.0,72,0.00,,---,0.01,VWS V14.01,2013-01-12 22:57:00,
2013-01-12 17:00:00,74.7,65.1,29.84,South,171,4.0,15.0,72,0.00,,---,0.01,VWS V14.01,2013-01-12 23:00:00,
2013-01-12 17:02:00,74.7,65.1,29.84,South,173,2.0,10.0,72,0.00,,---,0.01,VWS V14.01,2013-01-12 23:02:00,
2013-01-12 17:07:00,74.4,65.2,29.84,South,180,4.0,10.0,73,0.00,,---,0.01,VWS V14.01,2013-01-12 23:07:00,
2013-01-12 17:12:00,74.2,65.4,29.84,SSE,165,5.0,10.0,74,0.00,,---,0.01,VWS V14.01,2013-01-12 23:12:00,
2013-01-12 17:15:00,74.2,65.8,29.83,South,175,6.0,12.0,75,0.00,,---,0.01,VWS V14.01,2013-01-12 23:15:00,
2013-01-12 17:17:00,74.0,65.6,29.83,South,186,12.0,14.0,75,0.00,,---,0.01,VWS V14.01,2013-01-12 23:17:00,
2013-01-12 17:22:00,74.0,65.6,29.83,South,181,4.0,14.0,75,0.00,,---,0.01,VWS V14.01,2013-01-12 23:22:00,
2013-01-12 17:27:00,73.9,65.9,29.83,SSE,168,3.0,14.0,76,0.00,,---,0.01,VWS V14.01,2013-01-12 23:27:00,
2013-01-12 17:30:00,73.9,65.9,29.83,SSE,161,8.0,14.0,76,0.00,,---,0.01,VWS V14.01,2013-01-12 23:30:00,
2013-01-12 17:32:00,73.7,66.1,29.83,SSE,163,3.0,11.0,77,0.00,,---,0.01,VWS V14.01,2013-01-12 23:32:00,
2013-01-12 17:37:00,73.5,65.9,29.83,South,182,4.0,11.0,77,0.00,,---,0.01,VWS V14.01,2013-01-12 23:37:00,
2013-01-12 17:42:00,73.5,65.9,29.83,South,183,5.0,12.0,77,0.00,,---,0.01,VWS V14.01,2013-01-12 23:42:00,
2013-01-12 17:45:00,73.5,65.9,29.83,South,172,3.0,12.0,77,0.00,,---,0.01,VWS V14.01,2013-01-12 23:45:00,
2013-01-12 17:48:00,73.3,66.0,29.83,South,179,5.0,9.0,78,0.00,,---,0.01,VWS V14.01,2013-01-12 23:48:00,
2013-01-12 17:53:00,73.2,65.9,29.83,South,184,6.0,12.0,78,0.00,,---,0.01,VWS V14.01,2013-01-12 23:53:00,
2013-01-12 17:58:00,73.2,66.3,29.83,South,173,6.0,12.0,79,0.00,,---,0.01,VWS V14.01,2013-01-12 23:58:00,
2013-01-12 18:00:00,73.2,66.3,29.84,South,185,3.0,12.0,79,0.00,,---,0.01,VWS V14.01,2013-01-13 00:00:00,
2013-01-12 18:03:00,73.2,66.3,29.84,SSW,198,4.0,8.0,79,0.00,,---,0.01,VWS V14.01,2013-01-13 00:03:00,
2013-01-12 18:08:00,73.2,66.3,29.84,South,190,3.0,10.0,79,0.00,,---,0.01,VWS V14.01,2013-01-13 00:08:00,
2013-01-12 18:13:00,73.2,66.7,29.84,South,191,0.0,10.0,80,0.00,,---,0.01,VWS V14.01,2013-01-13 00:13:00,
2013-01-12 18:15:00,73.0,66.5,29.83,SSE,161,3.0,10.0,80,0.00,,---,0.01,VWS V14.01,2013-01-13 00:15:00,
2013-01-12 18:18:00,73.0,66.5,29.83,South,171,5.0,6.0,80,0.00,,---,0.01,VWS V14.01,2013-01-13 00:18:00,
2013-01-12 18:23:00,72.8,66.3,29.83,South,185,0.0,6.0,80,0.00,,---,0.01,VWS V14.01,2013-01-13 00:23:00,
2013-01-12 18:28:00,72.8,66.3,29.83,South,183,0.0,6.0,80,0.00,,---,0.01,VWS V14.01,2013-01-13 00:28:00,
2013-01-12 18:30:00,72.8,66.3,29.84,South,183,0.0,6.0,80,0.00,,---,0.01,VWS V14.01,2013-01-13 00:30:00,
2013-01-12 18:33:00,72.8,66.3,29.84,South,183,0.0,0.0,80,0.00,,---,0.01,VWS V14.01,2013-01-13 00:33:00,
2013-01-12 18:38:00,72.5,66.3,29.84,SE,140,0.0,6.0,81,0.00,,---,0.01,VWS V14.01,2013-01-13 00:38:00,
2013-01-12 18:43:00,72.3,66.2,29.84,SSE,166,0.0,6.0,81,0.00,,---,0.01,VWS V14.01,2013-01-13 00:43:00,
2013-01-12 18:45:00,72.3,66.2,29.84,South,173,0.0,6.0,81,0.00,,---,0.01,VWS V14.01,2013-01-13 00:45:00,
2013-01-12 18:49:00,72.3,66.2,29.84,South,171,0.0,1.0,81,0.00,,---,0.01,VWS V14.01,2013-01-13 00:49:00,
2013-01-12 18:54:00,72.3,66.2,29.84,SSW,195,0.0,5.0,81,0.00,,---,0.01,VWS V14.01,2013-01-13 00:54:00,
2013-01-12 18:59:00,72.3,66.2,29.84,South,182,0.0,5.0,81,0.00,,---,0.01,VWS V14.01,2013-01-13 00:59:00,
2013-01-12 19:00:00,72.3,66.2,29.84,South,185,3.0,5.0,81,0.00,,---,0.01,VWS V14.01,2013-01-13 01:00:00,
2013-01-12 19:04:00,72.3,66.2,29.84,SSW,196,0.0,5.0,81,0.00,,---,0.01,VWS V14.01,2013-01-13 01:04:00,
2013-01-12 19:09:00,72.3,66.5,29.84,SSW,196,0.0,5.0,82,0.00,,---,0.01,VWS V14.01,2013-01-13 01:09:00,
2013-01-12 19:14:00,72.3,66.5,29.84,SSE,163,2.0,9.0,82,0.00,,---,0.01,VWS V14.01,2013-01-13 01:14:00,
2013-01-12 19:15:00,72.3,66.5,29.84,South,176,4.0,9.0,82,0.00,,---,0.01,VWS V14.01,2013-01-13 01:15:00,
2013-01-12 19:19:00,72.3,66.5,29.84,SSW,205,0.0,6.0,82,0.00,,---,0.01,VWS V14.01,2013-01-13 01:19:00,
2013-01-12 19:24:00,72.3,66.5,29.84,South,174,3.0,7.0,82,0.00,,---,0.01,VWS V14.01,2013-01-13 01:24:00,
2013-01-12 19:29:00,72.1,66.7,29.84,SSE,155,2.0,10.0,83,0.00,,---,0.01,VWS V14.01,2013-01-13 01:29:00,
2013-01-12 19:30:00,72.1,66.7,29.84,SSE,155,3.0,10.0,83,0.00,,---,0.01,VWS V14.01,2013-01-13 01:30:00,
2013-01-12 19:34:00,72.1,66.7,29.84,SSE,166,3.0,4.0,83,0.00,,---,0.01,VWS V14.01,2013-01-13 01:34:00,
2013-01-12 19:39:00,72.1,66.7,29.84,South,180,8.0,9.0,83,0.00,,---,0.01,VWS V14.01,2013-01-13 01:39:00,
2013-01-12 19:44:00,72.1,66.7,29.84,South,178,2.0,5.0,83,0.00,,---,0.01,VWS V14.01,2013-01-13 01:44:00,
2013-01-12 19:45:00,72.1,66.7,29.84,South,180,5.0,9.0,83,0.00,,---,0.01,VWS V14.01,2013-01-13 01:45:00,
2013-01-12 19:50:00,72.0,66.9,29.84,SSE,167,3.0,7.0,84,0.00,,---,0.01,VWS V14.01,2013-01-13 01:50:00,
2013-01-12 19:55:00,72.0,66.9,29.84,South,174,3.0,11.0,84,0.00,,---,0.01,VWS V14.01,2013-01-13 01:55:00,
2013-01-12 20:00:00,72.0,66.9,29.84,South,173,3.0,5.0,84,0.00,,---,0.01,VWS V14.01,2013-01-13 02:00:00,
2013-01-12 20:05:00,72.0,67.2,29.84,South,190,7.0,11.0,85,0.00,,---,0.01,VWS V14.01,2013-01-13 02:05:00,
2013-01-12 20:10:00,72.0,67.2,29.84,SE,146,3.0,11.0,85,0.00,,---,0.01,VWS V14.01,2013-01-13 02:10:00,
2013-01-12 20:15:00,71.8,67.1,29.84,South,174,3.0,5.0,85,0.00,,---,0.01,VWS V14.01,2013-01-13 02:15:00,
2013-01-12 20:20:00,71.8,67.4,29.84,South,174,3.0,9.0,86,0.00,,---,0.01,VWS V14.01,2013-01-13 02:20:00,
2013-01-12 20:25:00,71.8,67.4,29.84,SSE,157,3.0,10.0,86,0.00,,---,0.01,VWS V14.01,2013-01-13 02:25:00,
2013-01-12 20:30:00,71.6,67.2,29.84,SSE,161,2.0,5.0,86,0.00,,---,0.01,VWS V14.01,2013-01-13 02:30:00,
2013-01-12 20:35:00,71.6,67.2,29.84,South,185,0.0,6.0,86,0.00,,---,0.01,VWS V14.01,2013-01-13 02:35:00,
2013-01-12 20:40:00,71.6,67.2,29.84,South,175,4.0,7.0,86,0.00,,---,0.01,VWS V14.01,2013-01-13 02:40:00,
2013-01-12 20:45:00,71.6,67.5,29.83,SSE,155,3.0,9.0,87,0.00,,---,0.01,VWS V14.01,2013-01-13 02:45:00,
2013-01-12 20:51:00,71.5,67.4,29.83,SSE,163,2.0,9.0,87,0.00,,---,0.01,VWS V14.01,2013-01-13 02:51:00,
2013-01-12 20:56:00,71.5,67.4,29.83,SSE,155,0.0,9.0,87,0.00,,---,0.01,VWS V14.01,2013-01-13 02:56:00,
2013-01-12 21:00:00,71.5,67.4,29.83,SE,131,9.0,11.0,87,0.00,,---,0.01,VWS V14.01,2013-01-13 03:00:00,
2013-01-12 21:01:00,71.5,67.4,29.83,SSE,149,1.0,9.0,87,0.00,,---,0.01,VWS V14.01,2013-01-13 03:01:00,
2013-01-12 21:06:00,71.3,67.2,29.83,South,169,1.0,9.0,87,0.00,,---,0.01,VWS V14.01,2013-01-13 03:06:00,
2013-01-12 21:11:00,71.1,67.4,29.83,South,171,1.0,9.0,88,0.00,,---,0.01,VWS V14.01,2013-01-13 03:11:00,
2013-01-12 21:15:00,71.1,67.4,29.82,SSW,194,4.0,10.0,88,0.00,,---,0.01,VWS V14.01,2013-01-13 03:15:00,
2013-01-12 21:16:00,71.1,67.4,29.82,SSE,163,9.0,13.0,88,0.00,,---,0.01,VWS V14.01,2013-01-13 03:16:00,
2013-01-12 21:21:00,70.9,67.2,29.82,SSE,163,3.0,13.0,88,0.00,,---,0.01,VWS V14.01,2013-01-13 03:21:00,
2013-01-12 21:26:00,70.9,67.5,29.82,South,180,0.0,13.0,89,0.00,,---,0.01,VWS V14.01,2013-01-13 03:26:00,
2013-01-12 21:30:00,71.1,67.7,29.82,SSW,195,7.0,13.0,89,0.00,,---,0.01,VWS V14.01,2013-01-13 03:30:00,
2013-01-12 21:31:00,71.1,67.7,29.82,South,184,4.0,7.0,89,0.00,,---,0.01,VWS V14.01,2013-01-13 03:31:00,
2013-01-12 21:36:00,71.1,67.7,29.82,South,176,4.0,11.0,89,0.00,,---,0.01,VWS V14.01,2013-01-13 03:36:00,
2013-01-12 21:41:00,71.1,67.7,29.82,South,182,7.0,11.0,89,0.00,,---,0.01,VWS V14.01,2013-01-13 03:41:00,
2013-01-12 21:45:00,71.1,67.7,29.83,South,188,2.0,11.0,89,0.00,,---,0.01,VWS V14.01,2013-01-13 03:45:00,
2013-01-12 21:46:00,71.1,67.7,29.83,South,181,0.0,6.0,89,0.00,,---,0.01,VWS V14.01,2013-01-13 03:46:00,
2013-01-12 21:51:00,71.1,67.7,29.83,SSE,157,6.0,11.0,89,0.00,,---,0.01,VWS V14.01,2013-01-13 03:51:00,
2013-01-12 21:56:00,71.1,67.7,29.83,SSE,155,4.0,11.0,89,0.00,,---,0.01,VWS V14.01,2013-01-13 03:56:00,
2013-01-12 22:00:00,70.9,67.8,29.84,South,176,4.0,13.0,90,0.00,,---,0.01,VWS V14.01,2013-01-13 04:00:00,
2013-01-12 22:01:00,71.1,67.7,29.82,South,169,0.0,6.0,89,0.00,,---,0.01,VWS V14.01,2013-01-13 04:01:00,
2013-01-12 22:06:00,71.1,67.7,29.82,South,189,10.0,10.0,89,0.00,,---,0.01,VWS V14.01,2013-01-13 04:06:00,
2013-01-12 22:12:00,71.1,67.7,29.82,SSE,161,3.0,10.0,89,0.00,,---,0.01,VWS V14.01,2013-01-13 04:12:00,
2013-01-12 22:15:00,71.1,67.7,29.81,South,182,3.0,10.0,89,0.00,,---,0.01,VWS V14.01,2013-01-13 04:15:00,
2013-01-12 22:17:00,70.9,67.5,29.81,South,180,5.0,11.0,89,0.00,,---,0.01,VWS V14.01,2013-01-13 04:17:00,
2013-01-12 22:22:00,70.9,67.5,29.81,South,169,2.0,11.0,89,0.00,,---,0.01,VWS V14.01,2013-01-13 04:22:00,
2013-01-12 22:27:00,70.9,67.5,29.81,SE,142,0.0,11.0,89,0.00,,---,0.01,VWS V14.01,2013-01-13 04:27:00,
2013-01-12 22:30:00,70.9,67.5,29.82,South,186,5.0,11.0,89,0.00,,---,0.01,VWS V14.01,2013-01-13 04:30:00,
2013-01-12 22:32:00,70.9,67.5,29.82,South,188,7.0,10.0,89,0.00,,---,0.01,VWS V14.01,2013-01-13 04:32:00,
2013-01-12 22:37:00,70.9,67.5,29.82,South,173,4.0,10.0,89,0.00,,---,0.01,VWS V14.01,2013-01-13 04:37:00,
2013-01-12 22:42:00,70.9,67.5,29.82,South,186,5.0,10.0,89,0.00,,---,0.01,VWS V14.01,2013-01-13 04:42:00,
2013-01-12 22:45:00,70.9,67.8,29.83,SSE,164,2.0,10.0,90,0.00,,---,0.01,VWS V14.01,2013-01-13 04:45:00,
2013-01-12 22:47:00,70.9,67.8,29.83,South,169,6.0,9.0,90,0.00,,---,0.01,VWS V14.01,2013-01-13 04:47:00,
2013-01-12 22:52:00,70.9,67.8,29.83,SSW,194,7.0,13.0,90,0.00,,---,0.01,VWS V14.01,2013-01-13 04:52:00,
2013-01-12 22:57:00,70.9,67.8,29.83,SSW,192,4.0,13.0,90,0.00,,---,0.01,VWS V14.01,2013-01-13 04:57:00,
2013-01-12 23:00:00,70.9,67.8,29.84,South,170,6.0,7.0,90,0.00,,---,0.01,VWS V14.01,2013-01-13 05:00:00,
2013-01-12 23:01:00,70.9,67.8,29.84,South,173,3.0,7.0,90,0.00,,---,0.01,VWS V14.01,2013-01-13 05:01:00,
2013-01-12 23:04:00,70.9,67.8,29.84,South,170,4.0,10.0,90,0.00,,---,0.01,VWS V14.01,2013-01-13 05:04:00,
2013-01-12 23:10:00,70.9,67.8,29.84,South,177,2.0,10.0,90,0.00,,---,0.01,VWS V14.01,2013-01-13 05:10:00,
2013-01-12 23:15:00,70.9,67.8,29.83,SE,133,1.0,3.0,90,0.00,,---,0.01,VWS V14.01,2013-01-13 05:15:00,
2013-01-12 23:20:00,70.8,67.7,29.83,South,183,0.0,6.0,90,0.00,,---,0.01,VWS V14.01,2013-01-13 05:20:00,
2013-01-12 23:25:00,70.8,67.7,29.83,South,187,5.0,7.0,90,0.00,,---,0.01,VWS V14.01,2013-01-13 05:25:00,
2013-01-12 23:30:00,70.9,67.8,29.84,SSE,167,2.0,3.0,90,0.00,,---,0.01,VWS V14.01,2013-01-13 05:30:00,
2013-01-12 23:35:00,70.8,67.7,29.84,South,170,0.0,5.0,90,0.00,,---,0.01,VWS V14.01,2013-01-13 05:35:00,
2013-01-12 23:40:00,70.8,67.7,29.84,South,174,0.0,6.0,90,0.00,,---,0.01,VWS V14.01,2013-01-13 05:40:00,
2013-01-12 23:45:00,70.8,67.7,29.83,South,182,2.0,5.0,90,0.00,,---,0.01,VWS V14.01,2013-01-13 05:45:00,
2013-01-12 23:50:00,70.8,67.7,29.83,South,181,3.0,6.0,90,0.00,,---,0.01,VWS V14.01,2013-01-13 05:50:00,
2013-01-12 23:55:00,70.9,67.8,29.83,South,186,3.0,9.0,90,0.00,,---,0.01,VWS V14.01,2013-01-13 05:55:00,